STARLINK-32122, 60285

Orbit data source: Space-Track

STARLINK-32122, 60285 is a payload satellite owned by SpaceX/Seattle (US) in LEO that was launched on Sun, 28 Jul 2024 UTC via an FALCON 9 launch vehicle from the Air Force Eastern Test Range (AFETR). Payloads include a variety of satellites, spacecraft, and rockets equipped with specific instruments for various scientific and technological missions. These include communications satellites like Starlink; space stations such as the ISS; scientific satellites like the Hubble; Earth observation satellites from companies like Planet Labs, Umbra, and HawkEye 360; GPS; miniature CubeSats for education and research; and military/defense satellites.

Loading next visibility...
STARLINK-32122 details
Identifier
60285, 2024-132H
Orbit
LEO
Last TLE update20 hours ago
Origin
Flag of USSpaceX/Seattle (US)
ManufacturerSpaceX/Seattle
MissionOperational spacecraft
Bus & MotorSTARLINK V2M, Unknown motor
Mass730 kg wet, ~700 kg dry
Launch date (UTC)
2024-07-28 (7 months ago)
Launch vehicle
FALCON 9
Launch site
Air Force Eastern Test Range (AFETR)
Object type
Payload
Rocket body
Debris
Shape & HBRUnknown
Radar Cross SectionLarge (>1 m²)

Expand to show TLE details & history

TLE from 20 hours ago
0 STARLINK-32122
1 60285U 24132H   25044.76387281 -.00000471  00000-0 -37877-5 0  9991
2 60285  53.1613  58.9860 0001379  94.1100 266.0059 15.30189021 32017
Epoch: 2025-02-13T18:19Z
Definitive object data (Epoch: 2025-02-13T18:19:58.61Z)
Latitude0.00001°
Longitude-0.04352°
Altitude476.214 km
Speed7.629 km/s
True Right ascension03h 55m 56s
True Declination0° 00' 00"
Sunlit
Object was in daylight at TLE epoch
Visualization TLE readout
Latitude-1.18979°
Longitude177.04879°
Altitude476.224 km
Speed7.629 km/s
Apparent Right ascension13h 54m 57s
Apparent Declination-61° 00' 53"
Sunlit
Object is in daylight
Visualization observer readout
Local Sidereal Time16:34:51
Azimuth198.902° SSW
Elevation-16.05°
Doppler factor1
Orbital elements
Apogee altitude476.449 km
Perigee altitude474.559 km
Semi-major axis6,853.641 km
Eccentricity0.0001379
Inclination53.1613°
RAAN58.986°
Arg. of periapsis94.11°
True anomaly265.99014°
Mean anomaly266.0059°
Eccentric anomaly265.99802°
Mean motion3.82526 °/min
BSTAR-0.0000037877
Orbital period94.11 mins
Loading maneuver chart data...
Loading historical data...
Loading historical data...
Loading historical data...
Loading historical data...
Loading historical data...
Loading historical data...
Loading historical data...

STARLINK-32122 Visibility forecast

Observer location: undefined°, undefined

Span
Click to sort rows by Start time (UTC) header in descending order
Start Az.
Max El. time (UTC)
Max El. Az.
Max El.
End time (UTC)
End Az.
5 mins2025-02-15 03:26:58.201Z234.325° WSW2025-02-15 03:28:58.201Z269.222° W44.132°2025-02-15 03:31:58.201Z47.399° ENE
4 mins2025-02-15 08:23:58.201Z345.619° N2025-02-15 08:25:58.201Z23.509° NE16.846°2025-02-15 08:27:58.201Z59.953° ENE
5 mins2025-02-15 10:01:58.201Z312.661° NW2025-02-15 10:03:58.201Z334.344° NNW43.877°2025-02-15 10:06:58.201Z127.658° SE
|